Location: La Brionne
(46.1728°N, 1.7849°E)
Time: 18:30:13
(UTC+00:00)

USA 215 - Pass Details

Date: 26 October 2021
Orbit: 1099 x 1109 km, 123.0° (Epoch: 20 November)

Event Time Altitude Azimuth Distance (km) Brightness Sun altitude
Exits shadow 17:39:43 - 51° (NE) 3,276 5.2 -9.6°
Reaches altitude 10° 17:40:32 10° 51° (NE) 2,964 5.0 -9.8°
Maximum altitude 17:47:04 79° 326° (NNW) 1,126 3.4 -10.9°
Drops below altitude 10° 17:53:37 10° 241° (WSW) 2,960 6.7 -12.0°
Sets 17:56:05 0° 240° (WSW) 3,917 7.5 -12.4°
